Location: Capelle
(50.3413°N, 1.9974°E)
Time: 23:28:17
(UTC+00:00)

Cosmos 1980 Rocket - Pass Details

Date: 12 January 2026
Orbit: 829 x 847 km, 71.0° (Epoch: 9 February)

Event Time Altitude Azimuth Distance (km) Brightness Sun altitude
Rises 18:24:10 0° 332° (NNW) 3,384 5.6 -20.1°
Reaches altitude 10° 18:27:28 10° 352° (N) 2,447 4.6 -20.6°
Enters shadow 18:30:08 17° 20° (NNE) 1,997 3.9 -21.1°
